Probability
0 0 0 0 0 0 0 0 0 0 0 0 0 0 0 0 0 0 0 0 0 0 0 0 0 0 0 0 0 0 0 0 0 0 0 0 0 0 0 0 0 0 0
0 0 0 0 0 0 0 0 0 0 0 0 0 0 0 0 0 0 0 0 0 0 0 0 0 0 0 0 0 0 0 0 0 0 0 0 0 0 0 0 0 0 0
0 0 0 0 0 0 0 0 0 0 0 0 0 0 0 0 0 0 0 0 0 0 0 0 0 0 0 0 0 0 0 0 0 0 0 0 0 0 0 0 0 0 0
0 0 0 0 0 0 0 0 0 0 0 0 0 0 0 0 0 0 0 0 0 0 0 0 0 0 0 0 0 0 0 0 0 0 0 0 0 0 0 0 0 0 0
0 0 0 0 0 0 0 0 0 0 0 0 0 0 0 0 0 0 0 0 0 0 0 0 0 0 0 0 0 0 0 0 0 0 0 0 0 0 0 0 0 0 0
0 0 0 0 0 0 0 0 0 0 0 0 0 0 0 0 0 0 0 0 0 0 0 0 0 0 0 0 0 0 0 0 0 0 0 0 0 0 0 0 0 0 0
0 0 0 0 0 0 0 0 0 0 0 0 0 0 0 0 0 0 0 0 0 0 0 0 0 0 0 0 0 0 0 0 0 0 0 0 0 0 0 0 0 0 0
0 0 0 0 0 0 0 0 0 0 0 0 0 0 0 0 0 0 0 0 0 0 0 0 0 0 0 0 0 0 0 0 0 0 0 0 0 0 0 0 0 0 0
0 0 0 0 0 0 0 0 0 0 0 0 0 0 0 0 0 0 0 0 0 0 0 0 0 0 0 0 0 0 0 0 0 0 0 0 0 0 0 0 0 0 0
0 0 0 0 0 0 0 0 0 0 0 0 0 0 0 0 0 0 0 0 0 0 0 0 0 0 0 0 0 0 0 0 0 0 0 0 0 0 0 0 0 0 0
0 0 0 0 0 0 0 0 0 0 0 0 0 0 0 0 0 0 0 0 0 0 0 0 0 0 0 0 0 0 0 0 0 0 0 0 0 0 0 0 0 0 0
0 0 0 0 0 0 0 0 0 0 0 0 0 0 0 0 0 0 0 0 0 0 0 0 0 0 0 0 0 0 0 0 0 0 0 0 0 0 0 0 0 0 0
0 0 0 0 0 0 0 0 0 0 0 0 0 0 0 0 0 0 0 0 0 0 0 0 0 0 0 0 0 0 0 0 0 0 0 0 0 0 0 0 0 0 0
0 0 0 0 0 0 0 0 0 0 0 0 0 0 0 0 0 0 0 0 0 0 0 0 0 0 0 0 0 0 0 0 0 0 0 0 0 0 0 0 0 0 0
0 0 0 0 0 0 0 0 0 0 0 0 0 0 0 0 0 0 0 0 0 0 0 0 0 0 0 0 0 0 0 0 0 0 0 0 0 0 0 0 0 0 0
0 0 0 0 0 0 0 0 0 0 0 0 0 0 0 0 0 0 0 0 0 0 0 0 0 0 0 0 0 0 0 0 0 0 0 0 0 0 0 0 0 0 0
0 0 0 0 0 0 0 0 0 0 0 0 0 0 0 0 0 0 0 0 0 0 0 0 0 0 0 0 0 0 0 0 0 0 0 0 0 0 0 0 0 0 0
0 0 0 0 0 0 0 0 0 0 0 0 0 0 0 0 0 0 0 0 0 0 0 0 0 0 0 0 0 0 0 0 0 0 0 0 0 0 0 0 0 0 0
0 0 0 0 0 0 0 0 0 0 0 0 0 0 0 0 0 0 0 0 0 0 0 0 0 0 0 0 0 0 0 0 0 0 0 0 0 0 0 0 0 0 0
0 0 0 0 0 0 0 0 0 0 0 0 0 0 0 0 0 0 0 0 0 0 0 0 0 0 0 0 0 0 0 0 0 0 0 0 0 0 0 0 0 0 0
0 0 0 0 0 0 0 0 0 0 0 0 0 0 0 0 0 0 0 0 0 0 0 0 0 0 0 0 0 0 0 0 0 0 0 0 0 0 0 0 0 0 0
0 0 0 0 0 0 0 0 0 0 0 0 0 0 0 0 0 0 0 0 0 0 0 0 0 0 0 0 0 0 0 0 0 0 0 0 0 0 0 0 0 0 0
0 0 0 0 0 0 0 0 0 0 0 0 0 0 0 0 0 0 0 0 0 0 0 0 0 0 0 0 0 0 0 0 0 0 0 0 0 0 0 0 0 0 0
0 0 0 0 0 0 0 0 0 0 0 0 0 0 0 0 0 0 0 0 0 0 0 0 0 0 0 0 0 0 0 0 0 0 0 0 0 0 0 0 0 0 0
0 0 0 0 0 0 0 0 0 0 0 0 0 0 0 0 0 0 0 0 0 0 0 0 0 0 0 0 0 0 0 0 0 0 0 0 0 0 0 0 0 0 0
0 0 0 0 0 0 0 0 0 0 0 0 0 0 0 0 0 0 0 0 0 0 0 0 0 0 0 0 0 0 0 0 0 0 0 0 0 0 0 0 0 0 0
Height
5751 5751 5751 5751 5751 5751 5751 5750 5749 5748 5747 5746 5745 5744 5743 5741 5739 5738 5736 5734 5733 5731 5729 5728 5727 5725 5725 5725 5725 5725 5726 5727 5727 5728 5730 5732 5733 5735 5737 5738 5740 5742 5744
5744 5745 5745 5745 5744 5744 5743 5743 5742 5741 5740 5738 5737 5736 5734 5733 5731 5729 5727 5725 5723 5721 5719 5717 5716 5714 5713 5713 5713 5713 5713 5714 5714 5714 5715 5718 5721 5721 5723 5725 5727 5729 5730
5738 5738 5738 5738 5737 5737 5736 5735 5734 5733 5732 5730 5729 5728 5726 5724 5722 5719 5717 5715 5713 5711 5709 5707 5706 5704 5703 5702 5701 5701 5701 5701 5701 5701 5702 5703 5707 5709 5710 5711 5713 5715 5717
5732 5732 5731 5731 5730 5730 5729 5728 5727 5725 5724 5722 5721 5719 5718 5716 5713 5711 5708 5706 5703 5701 5699 5697 5695 5694 5692 5691 5690 5689 5689 5689 5689 5689 5689 5690 5691 5693 5697 5699 5699 5701 5703
5725 5725 5725 5724 5723 5722 5721 5720 5719 5718 5716 5715 5713 5711 5709 5707 5705 5702 5699 5697 5694 5692 5689 5687 5685 5683 5682 5680 5679 5678 5677 5677 5677 5677 5677 5677 5678 5679 5681 5685 5687 5687 5689
5719 5718 5718 5717 5716 5715 5714 5713 5712 5711 5709 5707 5706 5704 5701 5699 5696 5693 5690 5687 5684 5682 5679 5677 5675 5673 5672 5670 5669 5668 5667 5666 5665 5665 5665 5665 5666 5666 5667 5669 5672 5674 5675
5713 5712 5711 5710 5710 5709 5707 5706 5705 5703 5702 5700 5698 5695 5693 5690 5688 5685 5682 5678 5675 5672 5670 5667 5665 5663 5662 5660 5659 5658 5657 5655 5654 5653 5653 5653 5653 5653 5654 5655 5657 5659 5661
5707 5706 5705 5704 5703 5702 5701 5699 5698 5696 5694 5692 5690 5687 5685 5682 5679 5676 5673 5670 5667 5664 5660 5658 5655 5653 5651 5650 5649 5647 5646 5644 5643 5642 5641 5641 5641 5641 5641 5642 5643 5644 5647
5701 5700 5699 5698 5697 5695 5694 5692 5690 5688 5686 5684 5681 5679 5676 5674 5670 5667 5664 5660 5657 5654 5651 5648 5646 5644 5642 5640 5638 5637 5635 5633 5632 5631 5630 5630 5629 5629 5629 5629 5629 5630 5632
5696 5694 5693 5692 5690 5689 5687 5685 5683 5681 5678 5676 5673 5671 5668 5665 5662 5659 5655 5652 5648 5645 5642 5639 5636 5634 5631 5629 5628 5626 5624 5622 5621 5620 5619 5618 5617 5617 5616 5616 5616 5616 5617
5690 5688 5687 5685 5684 5682 5680 5678 5676 5673 5671 5668 5665 5663 5660 5657 5653 5650 5647 5643 5640 5637 5633 5630 5627 5624 5621 5619 5617 5615 5613 5611 5610 5608 5607 5606 5605 5604 5603 5603 5603 5603 5603
5684 5682 5681 5679 5677 5675 5673 5670 5668 5666 5663 5660 5658 5655 5652 5648 5645 5642 5638 5635 5632 5628 5624 5621 5618 5614 5612 5609 5606 5604 5602 5600 5598 5597 5595 5594 5592 5591 5590 5589 5589 5588 5588
5679 5677 5675 5673 5670 5668 5666 5663 5660 5658 5655 5652 5649 5646 5643 5640 5637 5634 5630 5627 5623 5619 5616 5612 5609 5605 5602 5599 5596 5593 5591 5588 5586 5585 5583 5581 5580 5578 5576 5575 5574 5574 5573
5673 5671 5669 5666 5664 5662 5659 5656 5653 5650 5647 5644 5641 5638 5635 5632 5629 5626 5622 5618 5615 5611 5607 5603 5599 5596 5592 5588 5585 5582 5579 5577 5574 5572 5570 5568 5566 5565 5563 5561 5560 5558 5557
5668 5665 5663 5660 5658 5655 5652 5650 5646 5643 5640 5637 5633 5630 5627 5624 5621 5617 5613 5610 5606 5602 5598 5594 5590 5586 5581 5578 5574 5570 5567 5564 5562 5559 5557 5555 5553 5551 5549 5547 5545 5543 5541
5662 5660 5657 5655 5652 5649 5646 5643 5639 5635 5632 5629 5626 5622 5619 5616 5612 5609 5605 5601 5597 5593 5589 5585 5580 5575 5571 5566 5562 5559 5555 5552 5549 5546 5544 5541 5539 5536 5534 5532 5529 5527 5525
5657 5654 5651 5649 5646 5642 5639 5636 5632 5628 5625 5621 5618 5615 5611 5608 5604 5601 5597 5593 5588 5584 5580 5575 5570 5565 5561 5556 5552 5548 5544 5540 5537 5534 5531 5528 5524 5522 5519 5517 5514 5511 5508
5650 5648 5645 5642 5639 5635 5632 5629 5625 5621 5617 5614 5610 5607 5603 5600 5596 5592 5588 5584 5579 5575 5570 5565 5560 5555 5551 5546 5541 5537 5533 5529 5525 5521 5518 5514 5510 5507 5504 5502 5499 5495 5492
5643 5640 5637 5634 5631 5628 5624 5621 5618 5614 5610 5606 5602 5599 5595 5591 5587 5583 5579 5574 5570 5565 5560 5555 5550 5545 5540 5535 5531 5526 5522 5517 5512 5508 5504 5501 5497 5493 5489 5486 5484 5480 5477
5635 5632 5629 5626 5623 5619 5616 5613 5609 5605 5601 5598 5594 5590 5586 5582 5578 5574 5569 5564 5560 5554 5549 5544 5540 5535 5530 5525 5520 5515 5511 5506 5501 5496 5491 5487 5483 5479 5474 5471 5468 5465 5462
5627 5624 5621 5618 5614 5611 5607 5604 5600 5596 5592 5589 5585 5581 5577 5573 5568 5564 5559 5554 5550 5544 5539 5534 5529 5524 5519 5514 5509 5504 5499 5494 5489 5484 5479 5474 5469 5465 5461 5457 5453 5450 5447
5618 5615 5612 5609 5605 5601 5598 5595 5591 5587 5583 5579 5575 5571 5567 5563 5559 5554 5549 5544 5539 5534 5529 5524 5518 5513 5508 5503 5498 5492 5487 5482 5477 5472 5467 5461 5457 5452 5448 5443 5439 5435 5432
5608 5605 5602 5598 5595 5591 5588 5585 5581 5577 5573 5569 5565 5561 5557 5553 5549 5544 5539 5534 5529 5524 5519 5513 5508 5503 5497 5492 5487 5481 5476 5470 5465 5460 5454 5449 5444 5439 5434 5430 5425 5421 5418
5598 5594 5591 5588 5585 5581 5577 5574 5571 5567 5563 5559 5555 5551 5547 5543 5538 5534 5529 5524 5519 5514 5509 5503 5498 5493 5487 5482 5476 5470 5465 5459 5454 5448 5442 5437 5432 5427 5422 5417 5412 5408 5404
5587 5584 5580 5577 5574 5570 5567 5563 5560 5556 5552 5548 5545 5540 5536 5532 5528 5523 5519 5514 5509 5503 5498 5493 5488 5483 5477 5471 5465 5460 5454 5448 5443 5437 5431 5426 5420 5415 5409 5404 5400 5395 5391
5575 5572 5569 5566 5562 5559 5556 5552 5548 5545 5541 5538 5534 5530 5526 5521 5517 5512 5508 5502 5498 5493 5488 5483 5478 5472 5467 5460 5455 5449 5443 5437 5431 5426 5420 5414 5409 5403 5398 5393 5388 5383 5379
Wind_Speed
34 34 35 35 36 37 37 37 36 36 36 37 37 38 38 39 40 40 40 41 42 42 42 43 44 45 47 49 50 51 51 51 51 52 53 53 54 53 52 51 51 51 51
34 35 35 36 36 36 36 36 36 36 37 37 38 38 38 38 39 40 40 40 41 42 42 42 42 43 45 46 47 49 50 51 51 52 53 54 54 54 54 55 54 54 54
34 35 35 35 34 35 35 36 36 36 37 37 37 37 37 38 39 40 40 41 41 41 41 42 42 43 44 44 44 46 48 49 50 50 52 53 54 55 54 55 56 55 55
33 33 34 34 34 35 35 35 35 35 35 35 35 36 36 37 37 38 39 39 40 40 40 41 42 42 43 43 44 45 46 48 50 51 51 52 52 53 52 52 53 54 55
31 31 32 33 33 33 33 33 33 33 33 34 35 35 35 36 36 37 37 38 39 40 40 41 41 41 40 41 42 43 44 46 47 49 50 51 51 52 52 52 52 53 53
29 30 30 31 31 31 31 32 32 33 33 33 33 34 35 36 36 37 37 38 39 39 39 39 39 39 39 39 40 41 42 43 45 47 49 50 51 52 52 52 52 53 53
26 27 28 29 30 31 31 31 32 32 33 33 34 34 35 36 36 37 37 37 38 38 39 39 39 39 38 39 39 40 42 43 44 45 47 48 50 51 51 52 52 53 53
25 26 27 28 29 29 30 30 32 32 33 34 34 35 35 35 36 36 37 37 37 37 38 38 38 39 40 40 41 41 42 43 43 43 44 46 47 49 50 51 51 52 53
24 26 27 28 28 29 30 30 31 32 33 33 34 34 34 35 35 35 35 36 36 37 38 38 39 39 40 40 41 41 41 41 42 42 44 45 46 47 48 49 51 52 53
24 25 26 27 28 28 29 30 31 32 32 33 33 33 33 34 34 34 35 35 35 36 37 38 39 39 40 40 41 41 41 42 42 43 43 44 46 47 48 49 50 52 53
24 25 25 26 27 28 29 30 31 31 31 32 32 32 33 33 33 34 34 34 34 35 35 36 37 38 39 39 40 40 41 41 42 42 43 43 45 47 48 49 50 51 52
24 24 25 26 27 28 29 30 30 30 31 31 32 32 32 32 33 33 33 34 34 35 36 36 37 37 38 38 39 40 41 41 42 43 43 44 44 46 48 49 50 51 52
24 25 25 26 27 27 28 28 29 30 31 31 31 32 32 33 33 33 34 35 35 36 36 36 37 38 38 38 39 40 41 42 42 43 44 44 45 45 47 48 50 51 52
24 24 24 25 26 27 27 28 28 29 30 31 31 32 32 33 34 34 35 35 35 35 36 37 38 38 39 39 40 41 42 43 44 44 45 46 46 47 47 48 49 50 52
23 23 24 25 26 26 26 27 28 29 30 30 30 31 32 33 33 34 35 35 36 36 37 37 38 39 40 41 41 42 43 43 44 45 45 47 47 48 49 49 50 50 52
24 24 25 26 26 27 27 28 29 29 29 30 31 32 33 33 33 33 34 35 36 37 38 39 40 40 40 40 40 41 42 43 44 45 46 46 47 48 49 49 50 51 52
26 26 27 27 28 28 29 29 29 30 30 31 32 32 32 32 33 34 35 36 37 38 39 40 40 40 40 40 40 41 42 43 43 44 45 46 47 48 49 49 50 51 52
27 28 28 29 29 30 30 31 31 31 32 32 32 32 32 33 34 35 36 36 37 39 40 40 40 40 40 41 41 42 42 43 43 44 46 47 47 49 49 50 50 51 51
30 30 30 31 32 32 33 33 33 34 33 33 33 34 34 35 36 36 37 38 39 40 40 40 41 41 42 42 42 42 43 43 44 44 45 46 47 48 48 49 49 49 50
33 33 33 33 34 34 34 34 34 35 35 35 35 35 36 36 37 38 39 40 40 41 41 41 41 42 42 43 43 43 43 43 44 44 45 46 46 47 47 48 48 48 48
35 35 35 35 35 36 36 36 35 35 36 36 37 37 37 37 38 38 39 40 40 41 41 42 41 42 42 43 43 43 43 43 43 44 44 45 45 45 46 46 47 46 47
37 37 37 37 37 37 37 37 36 37 37 38 38 38 38 38 39 39 39 39 40 40 41 41 41 41 42 42 42 42 43 43 43 43 44 44 45 45 45 46 46 46 46
39 38 38 38 38 38 38 38 38 38 38 39 39 39 39 39 39 40 40 41 41 41 41 41 41 42 42 42 43 43 43 43 44 44 44 44 44 44 45 45 45 45 44
39 39 39 38 38 39 39 39 39 39 39 39 39 39 39 40 40 41 41 42 41 41 41 41 41 41 42 43 43 43 43 44 44 43 43 43 43 44 44 43 43 43 43
40 40 39 38 39 39 39 40 40 41 40 40 40 40 40 40 41 41 42 42 42 42 41 41 41 42 42 42 43 43 43 43 43 42 42 42 42 43 42 42 42 41 41
42 41 41 40 40 40 40 41 41 41 41 41 41 41 41 42 42 42 42 43 42 42 42 42 42 42 43 43 43 43 43 43 43 42 42 42 42 42 42 41 41 40 39
Wind_Direction
263 265 267 269 270 271 272 273 274 276 277 278 279 279 280 281 280 279 279 279 279 278 278 278 276 274 271 269 267 266 266 265 264 263 262 260 260 260 260 260 260 260 260
265 267 269 271 272 272 273 274 275 277 278 279 279 280 281 281 281 281 281 281 280 279 279 278 277 275 273 271 269 267 266 265 265 264 262 261 260 260 261 260 260 260 260
267 269 271 272 273 274 275 276 277 278 279 279 279 279 281 282 283 283 282 282 282 280 278 278 278 276 275 273 271 269 267 266 265 265 263 262 261 261 262 261 261 260 259
268 270 272 274 275 276 276 277 279 280 280 279 280 281 282 283 283 284 283 283 283 282 281 280 279 278 276 275 273 271 269 268 266 266 264 264 263 262 260 260 261 260 260
270 271 273 275 276 277 277 278 280 281 281 280 282 283 284 285 286 287 285 285 284 284 283 281 280 280 278 276 274 273 272 271 269 267 266 265 265 263 262 260 259 261 261
271 273 274 276 276 278 279 280 280 282 282 283 283 284 285 287 288 289 289 288 288 286 285 283 281 280 280 277 276 274 275 274 272 270 267 266 265 265 265 263 261 261 260
273 275 276 277 278 279 280 281 282 283 283 284 285 286 287 289 290 290 290 290 289 288 287 286 284 282 280 279 278 277 276 276 275 273 270 268 266 265 265 264 263 262 261
275 276 278 279 280 280 281 282 283 284 285 286 286 287 288 290 291 292 292 291 290 289 288 287 286 284 282 281 280 279 278 277 276 274 272 270 268 267 266 265 264 263 262
277 278 280 281 281 282 283 284 285 286 287 287 287 288 289 291 292 293 293 293 291 290 289 288 287 286 285 283 282 281 280 278 276 274 273 271 270 268 268 267 266 265 263
280 281 281 282 283 284 285 286 287 288 288 288 288 289 290 291 292 294 295 295 294 294 292 291 290 288 286 284 283 281 280 279 277 275 274 273 272 271 269 269 268 267 266
284 284 285 285 286 286 286 287 288 288 288 289 290 291 291 292 293 294 295 295 296 296 295 295 293 291 289 286 285 283 281 280 279 277 276 276 275 273 272 271 270 269 268
286 287 287 288 289 289 288 288 289 289 289 290 291 292 293 294 295 296 296 296 296 297 297 296 295 294 292 290 287 286 284 282 281 279 279 278 278 276 274 272 271 270 269
290 289 289 290 291 291 291 291 292 291 290 291 291 292 294 294 295 296 296 297 297 298 299 298 297 296 294 292 291 289 286 284 282 281 279 279 279 278 276 274 272 270 269
293 292 292 293 294 294 294 294 294 294 294 293 293 293 294 295 296 296 297 298 299 299 300 299 298 297 295 294 292 291 289 286 283 282 281 280 280 279 277 276 275 273 272
294 294 295 297 297 297 297 298 298 297 296 295 294 295 295 296 297 298 299 299 299 300 301 300 299 299 297 296 294 292 290 288 286 284 283 282 281 281 280 278 277 275 274
296 296 297 299 299 298 298 300 301 299 297 296 295 296 297 298 299 300 300 300 301 301 301 301 301 300 299 298 297 294 292 289 287 286 286 285 283 282 281 280 279 277 276
295 295 296 297 298 298 298 299 301 301 299 298 297 298 298 299 300 300 301 302 302 302 302 302 302 301 300 300 298 297 295 293 291 289 288 286 285 284 282 281 280 279 277
294 295 296 297 296 297 298 299 300 301 301 300 299 299 299 300 300 301 302 303 303 303 303 303 303 302 302 301 300 299 297 296 294 292 291 289 288 286 285 283 282 280 278
294 296 296 297 296 296 297 298 299 300 300 300 300 299 299 299 300 301 302 303 303 304 305 304 304 303 303 302 302 301 300 299 297 296 294 293 291 289 287 286 284 282 280
294 295 296 296 296 296 297 298 298 299 299 299 299 300 300 300 300 301 302 303 304 305 304 304 304 304 304 303 303 302 301 301 300 299 297 296 294 292 290 289 288 286 283
293 293 294 295 296 296 296 297 298 298 299 299 299 300 300 300 301 302 303 304 305 305 305 305 304 304 305 305 304 304 303 303 302 301 299 298 296 295 293 292 290 288 286
292 293 293 294 294 294 295 296 296 297 298 299 299 299 300 301 301 302 304 305 305 306 305 305 305 305 306 306 306 306 305 305 304 302 300 299 297 296 295 294 292 290 288
292 292 292 293 293 293 294 295 296 297 297 298 298 299 300 301 301 302 303 304 305 306 306 305 305 305 306 306 306 306 306 306 305 303 301 300 299 298 297 295 294 292 290
292 292 291 292 292 292 293 294 295 296 296 297 298 299 300 301 302 302 303 304 304 305 305 305 305 306 307 307 307 307 306 307 306 305 303 302 301 300 299 297 296 294 293
291 291 292 292 292 292 293 293 294 295 296 296 297 298 299 301 302 303 303 303 304 305 305 305 306 307 307 308 308 307 307 307 307 306 305 304 303 302 300 300 298 296 295
289 290 291 291 291 292 293 294 294 295 296 296 297 298 299 301 301 302 302 303 303 304 305 305 306 306 308 308 308 308 308 308 308 307 306 305 304 303 302 301 300 298 296